This is the latest recevied weather packets stored in our database for station/object K1JO. If no packets are shown the sender has not sent any weather packets the latest 10 day(s).
| Time | Temp. | Humidity | Pressure | Rain* | Wind** | Luminosity | Snow |
|---|---|---|---|---|---|---|---|
| 1777870092 | 0° C | 99% | 1001.6 hPa | 0 mm | - | 0 W/m² | - |
| 1777869789 | 0° C | 99% | 1001.4 hPa | 0 mm | - | 0 W/m² | - |
| 1777869486 | 0.56° C | 99% | 1001.5 hPa | 0 mm | - | 0 W/m² | - |
| 1777869183 | 0.56° C | 98% | 1001.5 hPa | 0 mm | - | 0 W/m² | - |
| 1777868881 | 0.56° C | 98% | 1001.3 hPa | 0 mm | - | 0 W/m² | - |
| 1777868577 | 0.56° C | 98% | 1001.5 hPa | 0 mm | - | 0 W/m² | - |
| 1777868273 | 0.56° C | 98% | 1001.4 hPa | 0 mm | - | 0 W/m² | - |
| 1777867969 | 1.11° C | 98% | 1001.3 hPa | 0 mm | - | 0 W/m² | - |
| 1777867665 | 1.11° C | 98% | 1001.1 hPa | 0 mm | - | 0 W/m² | - |
| 1777867363 | 1.11° C | 97% | 1001.2 hPa | 0 mm | - | 0 W/m² | - |
| 1777867059 | 1.67° C | 97% | 1001.3 hPa | 0 mm | - | 0 W/m² | - |
| 1777866756 | 1.67° C | 97% | 1001.3 hPa | 0 mm | - | 0 W/m² | - |
| 1777866454 | 1.67° C | 96% | 1001 hPa | 0 mm | - | 0 W/m² | - |
| 1777866151 | 2.22° C | 95% | 1001 hPa | 0 mm | - | 0 W/m² | - |
| 1777865849 | 2.22° C | 94% | 1001.2 hPa | 0 mm | - | 0 W/m² | - |
| 1777865546 | 2.78° C | 91% | 1000.9 hPa | 0 mm | - | 0 W/m² | - |
| 1777865243 | 2.78° C | 92% | 1001 hPa | 0 mm | - | 0 W/m² | - |
| 1777864940 | 2.78° C | 91% | 1000.9 hPa | 0 mm | - | 0 W/m² | - |
| 1777864637 | 2.78° C | 90% | 1001.1 hPa | 0 mm | - | 0 W/m² | - |
| 1777864334 | 2.78° C | 90% | 1000.9 hPa | 0 mm | - | 0 W/m² | - |
| 1777864030 | 2.78° C | 87% | 1000.9 hPa | 0 mm | - | 0 W/m² | - |
| 1777863728 | 3.33° C | 85% | 1000.9 hPa | 0 mm | - | 0 W/m² | - |
| 1777863424 | 3.33° C | 89% | 1000.8 hPa | 0 mm | - | 0 W/m² | - |
| 1777863120 | 3.33° C | 87% | 1000.8 hPa | 0 mm | - | 0 W/m² | - |
| 1777862818 | 3.33° C | 86% | 1000.7 hPa | 0 mm | - | 0 W/m² | - |
* Rain latest hour (hover to see other rain measurements)
** Current wind speed in m/s (hover to see current wind gust speed)